EW7755 Weather Reports


time (UTC)temp
C
wind
direction
speed
KPH
gust
KPH
rain 1hr
cm
rain 24hr
cm
rain mn
cm
humidity
%
barometer
mb
20260906210331 32 141 24.1 37.0 0.00 0.00 0.00 37 1014.9
20260906205832 32 133 19.3 30.6 0.00 0.00 0.00 38 1015.0
20260906205332 32 152 19.3 25.7 0.00 0.00 0.00 37 1015.3
20260906205052 32 159 14.5 30.6 0.00 0.00 0.00 38 1015.2
20260906204329 32 144 14.5 30.6 0.00 0.00 0.00 39 1015.3
20260906203826 32 113 14.5 33.8 0.00 0.00 0.00 40 1015.3
20260906203323 32 134 19.3 33.8 0.00 0.00 0.00 40 1015.5
20260906202823 32 141 19.3 33.8 0.00 0.00 0.00 39 1015.5
20260906202324 32 157 24.1 33.8 0.00 0.00 0.00 41 1015.6
20260906201823 32 110 25.7 33.8 0.00 0.00 0.00 40 1015.6
20260906201324 32 144 22.5 30.6 0.00 0.00 0.00 41 1015.6
20260906201045 32 179 16.1 37.0 0.00 0.00 0.00 41 1015.6
20260906200323 31 111 22.5 37.0 0.00 0.00 0.00 41 1015.8
20260906200043 31 148 14.5 29.0 0.00 0.00 0.00 41 1015.7
20260906195323 31 127 20.9 30.6 0.00 0.00 0.00 43 1015.8
20260906195042 31 166 17.7 32.2 0.00 0.00 0.00 44 1015.8
20260906193823 31 155 20.9 29.0 0.00 0.00 0.00 43 1016.1
20260906193544 31 192 17.7 29.0 0.00 0.00 0.00 44 1016.1
20260906191820 31 168 20.9 32.2 0.00 0.00 0.00 45 1016.2
20260906191542 30 175 16.1 27.4 0.00 0.00 0.00 45 1016.2
20260906190822 30 176 14.5 30.6 0.00 0.00 0.00 46 1016.3
20260906185822 30 180 17.7 25.7 0.00 0.00 0.00 45 1016.4
20260906185320 30 131 17.7 35.4 0.00 0.00 0.00 47 1016.4
20260906184820 30 196 19.3 35.4 0.00 0.00 0.00 46 1016.4
20260906184320 30 148 9.7 35.4 0.00 0.00 0.00 47 1016.5
20260906183822 30 186 24.1 35.4 0.00 0.00 0.00 48 1016.7
20260906183321 30 166 22.5 32.2 0.00 0.00 0.00 48 1016.7
20260906182819 29 151 14.5 32.2 0.00 0.00 0.00 49 1016.8
20260906182321 29 175 17.7 27.4 0.00 0.00 0.00 49 1016.9
20260906181820 29 161 19.3 38.6 0.00 0.00 0.00 50 1017.1
20260906181319 28 197 22.5 38.6 0.00 0.00 0.00 51 1017.2
20260906180820 28 192 17.7 32.2 0.00 0.00 0.00 51 1017.3
20260906180320 28 169 20.9 32.2 0.00 0.00 0.00 53 1017.3
20260906175820 28 144 17.7 32.2 0.00 0.00 0.00 54 1017.5
20260906175537 28 157 20.9 32.2 0.00 0.00 0.00 53 1017.6
20260906174819 27 190 17.7 32.2 0.00 0.00 0.00 54 1017.7
20260906174319 27 202 11.3 29.0 0.00 0.00 0.00 55 1017.9
20260906173820 27 158 16.1 32.2 0.00 0.00 0.00 56 1018.1
20260906173318 27 192 14.5 32.2 0.00 0.00 0.00 55 1018.1
20260906172820 27 171 14.5 25.7 0.00 0.00 0.00 56 1018.1
20260906172319 27 157 17.7 30.6 0.00 0.00 0.00 57 1018.3
20260906171819 26 154 22.5 30.6 0.00 0.00 0.00 57 1018.4
20260906171320 26 158 16.1 29.0 0.00 0.00 0.00 60 1018.5
20260906170818 26 151 16.1 30.6 0.00 0.00 0.00 61 1018.5
20260906170318 25 130 22.5 30.6 0.00 0.00 0.00 61 1018.4
20260906165818 25 152 19.3 32.2 0.00 0.00 0.00 62 1018.4
20260906165317 25 157 17.7 32.2 0.00 0.00 0.00 64 1018.4
20260906164817 25 151 17.7 29.0 0.00 0.00 0.00 64 1018.3
20260906164318 24 131 16.1 29.0 0.00 0.00 0.00 66 1018.6
20260906164041 23 135 16.1 27.4 0.00 0.00 0.00 68 1018.6
20260906163317 23 130 17.7 27.4 0.00 0.00 0.00 68 1018.7
20260906162819 23 123 16.1 25.7 0.00 0.00 0.00 69 1018.6
20260906162540 23 109 17.7 25.7 0.00 0.00 0.00 70 1018.7
20260906161818 23 147 19.3 29.0 0.00 0.00 0.00 71 1018.7
20260906161318 22 117 17.7 29.0 0.00 0.00 0.00 73 1018.7
20260906160317 22 144 19.3 27.4 0.00 0.00 0.00 74 1018.8
20260906155816 22 128 17.7 25.7 0.00 0.00 0.00 74 1018.8
20260906155543 21 128 17.7 25.7 0.00 0.00 0.00 75 1018.8
20260906154817 21 137 17.7 27.4 0.00 0.00 0.00 75 1018.7
20260906154316 21 123 19.3 27.4 0.00 0.00 0.00 76 1018.7
20260906153816 21 127 17.7 24.1 0.00 0.00 0.00 77 1018.7
20260906153539 21 134 12.9 24.1 0.00 0.00 0.00 77 1018.7
20260906152816 21 121 17.7 24.1 0.00 0.00 0.00 78 1018.7
20260906152315 21 113 11.3 19.3 0.00 0.00 0.00 79 1018.6
20260906151815 20 161 12.9 22.5 0.00 0.00 0.00 79 1018.5
20260906151316 20 123 9.7 25.7 0.00 0.00 0.00 79 1018.6
20260906151037 20 133 12.9 25.7 0.00 0.00 0.00 79 1018.4
20260906150315 20 147 12.9 25.7 0.00 0.00 0.00 80 1018.6
20260906145816 20 124 19.3 25.7 0.00 0.00 0.00 80 1018.3
20260906145314 20 151 16.1 27.4 0.00 0.00 0.00 82 1018.3
20260906144816 20 128 20.9 30.6 0.00 0.00 0.00 82 1018.3
20260906144315 19 142 17.7 30.6 0.00 0.00 0.00 84 1018.0
20260906143814 19 131 22.5 30.6 0.00 0.00 0.00 85 1018.1
20260906143314 18 142 24.1 29.0 0.00 0.00 0.00 85 1018.3
20260906142814 18 172 16.1 24.1 0.00 0.00 0.00 86 1018.0
20260906142310 18 131 17.7 29.0 0.00 0.00 0.00 86 1018.1
20260906141811 18 118 19.3 29.0 0.00 0.00 0.00 86 1018.1
20260906141532 18 127 20.9 24.1 0.00 0.00 0.00 86 1018.3
20260906141030 18 123 16.1 27.4 0.00 0.00 0.00 87 1018.3
20260906140311 18 141 19.3 27.4 0.00 0.00 0.00 88 1018.3
20260906135811 17 120 20.9 29.0 0.00 0.00 0.00 89 1018.4
20260906134807 17 106 19.3 24.1 0.00 0.00 0.00 90 1018.4
20260906134308 17 104 17.7 25.7 0.00 0.00 0.00 90 1018.5
20260906133808 16 102 12.9 25.7 0.00 0.00 0.00 90 1018.6
20260906133308 16 117 17.7 24.1 0.00 0.00 0.00 90 1018.6
20260906132807 16 110 11.3 19.3 0.00 0.00 0.00 90 1018.6
20260906132306 16 106 11.3 17.7 0.00 0.00 0.00 89 1018.5
20260906131804 16 114 9.7 17.7 0.00 0.00 0.00 89 1018.4
20260906131303 16 111 11.3 17.7 0.00 0.00 0.00 89 1018.3
20260906131025 16 97 11.3 17.7 0.00 0.00 0.00 89 1018.4
20260906130253 16 103 9.7 16.1 0.00 0.00 0.00 89 1018.3
20260906125747 16 111 9.7 19.3 0.00 0.00 0.00 88 1018.3
20260906125505 16 114 11.3 19.3 0.00 0.00 0.00 88 1018.1
20260906124747 16 109 12.9 17.7 0.00 0.00 0.00 88 1018.1
20260906124244 16 104 14.5 20.9 0.00 0.00 0.00 88 1018.0
20260906123744 16 107 12.9 20.9 0.00 0.00 0.00 88 1018.0
20260906123240 16 109 11.3 20.9 0.00 0.00 0.00 87 1017.9
20260906122959 16 97 12.9 20.9 0.00 0.00 0.00 87 1017.9
20260906122240 16 97 11.3 19.3 0.00 0.00 0.00 86 1017.8
20260906122006 16 106 14.5 19.3 0.00 0.00 0.00 86 1017.7
20260906121241 16 99 12.9 17.7 0.00 0.00 0.00 86 1017.7
20260906120740 16 93 11.3 16.1 0.00 0.00 0.00 85 1017.6
20260906115738 16 110 11.3 16.1 0.00 0.00 0.00 84 1017.7
20260906115238 16 104 11.3 14.5 0.00 0.00 0.00 84 1017.7
20260906114738 16 117 6.4 11.3 0.00 0.00 0.00 84 1017.7
20260906114234 16 96 6.4 14.5 0.00 0.00 0.00 84 1017.7
20260906113733 16 106 9.7 16.1 0.00 0.00 0.00 84 1017.6
20260906113232 16 90 9.7 16.1 0.00 0.00 0.00 83 1017.6
20260906112732 16 96 11.3 16.1 0.00 0.00 0.00 83 1017.7
20260906112232 17 96 9.7 14.5 0.00 0.00 0.00 83 1017.8
20260906111732 17 82 9.7 16.1 0.00 0.00 0.00 83 1017.8
20260906111230 17 87 9.7 16.1 0.00 0.00 0.00 83 1017.7
20260906110733 17 90 9.7 17.7 0.00 0.00 0.00 83 1017.7
20260906110232 17 96 12.9 19.3 0.00 0.00 0.00 83 1017.7
20260906105733 17 103 12.9 20.9 0.00 0.00 0.00 82 1017.7
20260906105231 17 99 16.1 22.5 0.00 0.00 0.00 82 1017.7
20260906104955 17 90 12.9 22.5 0.00 0.00 0.00 82 1017.8
20260906104232 17 109 14.5 22.5 0.00 0.00 0.00 81 1017.8
20260906103731 17 104 11.3 24.1 0.00 0.00 0.00 81 1017.7
20260906103231 17 109 17.7 27.4 0.00 0.00 0.00 81 1017.6
20260906102731 17 90 19.3 27.4 0.00 0.00 0.00 80 1017.6
20260906102231 17 89 17.7 27.4 0.00 0.00 0.00 80 1017.5
20260906101731 17 113 17.7 27.4 0.00 0.00 0.00 79 1017.6
20260906101232 17 102 19.3 27.4 0.00 0.00 0.00 79 1017.6
20260906100732 17 111 17.7 24.1 0.00 0.00 0.00 79 1017.6
20260906100233 17 90 14.5 22.5 0.00 0.00 0.00 78 1017.5
20260906095731 17 99 14.5 22.5 0.00 0.00 0.00 78 1017.6
20260906095231 17 94 14.5 22.5 0.00 0.00 0.00 77 1017.5
20260906094731 17 120 14.5 24.1 0.00 0.00 0.00 77 1017.6
20260906094225 17 96 16.1 24.1 0.00 0.00 0.00 77 1017.6
20260906093724 17 89 17.7 24.1 0.00 0.00 0.00 76 1017.7
20260906093226 17 96 12.9 24.1 0.00 0.00 0.00 75 1017.6
20260906092725 18 99 17.7 30.6 0.00 0.00 0.00 75 1017.5
20260906092225 18 97 22.5 30.6 0.00 0.00 0.00 75 1017.3
20260906091719 18 85 19.3 27.4 0.00 0.00 0.00 74 1017.2
20260906091218 18 76 16.1 29.0 0.00 0.00 0.00 74 1017.2
20260906090719 18 86 20.9 30.6 0.00 0.00 0.00 74 1017.2
20260906090220 18 97 19.3 30.6 0.00 0.00 0.00 74 1017.2
20260906085717 18 89 17.7 30.6 0.00 0.00 0.00 75 1017.2
20260906085214 18 78 24.1 37.0 0.00 0.00 0.00 75 1017.1
20260906084714 18 90 27.4 37.0 0.00 0.00 0.00 75 1017.2
20260906084431 17 69 27.4 35.4 0.00 0.00 0.00 76 1017.2
20260906083708 17 82 22.5 41.8 0.00 0.00 0.00 77 1017.3
20260906083206 17 87 22.5 41.8 0.00 0.00 0.00 78 1017.5
20260906082706 17 78 29.0 35.4 0.00 0.00 0.00 79 1017.5
20260906082205 17 72 29.0 38.6 0.00 0.00 0.00 81 1017.3
20260906081705 17 78 30.6 38.6 0.00 0.00 0.00 81 1017.5
20260906081205 17 66 24.1 32.2 0.00 0.00 0.00 82 1017.6
20260906080707 17 68 24.1 33.8 0.00 0.00 0.00 82 1017.7
20260906080206 17 59 22.5 33.8 0.00 0.00 0.00 82 1017.8
20260906075705 17 63 20.9 30.6 0.00 0.00 0.00 83 1017.9
20260906075205 17 80 19.3 33.8 0.00 0.00 0.00 84 1017.9
20260906074706 17 75 19.3 33.8 0.00 0.00 0.00 85 1017.8
20260906073706 18 68 22.5 30.6 0.00 0.00 0.00 85 1017.8
20260906073204 18 78 22.5 32.2 0.00 0.00 0.00 85 1017.7
20260906072705 18 79 24.1 32.2 0.00 0.00 0.00 84 1017.7
20260906072434 18 76 24.1 37.0 0.00 0.00 0.00 83 1017.8
20260906071704 18 71 22.5 37.0 0.00 0.00 0.00 82 1017.8
20260906071204 18 71 19.3 29.0 0.00 0.00 0.00 82 1017.8
20260906070704 18 72 17.7 29.0 0.00 0.00 0.00 81 1017.9
20260906070431 18 37 14.5 27.4 0.00 0.00 0.00 81 1017.9
20260906065706 18 63 14.5 27.4 0.00 0.00 0.00 81 1017.8
20260906065203 18 62 16.1 25.7 0.00 0.00 0.00 81 1017.7
20260906064704 18 51 11.3 19.3 0.00 0.00 0.00 81 1017.7
20260906064201 18 54 11.3 20.9 0.00 0.00 0.00 81 1017.8
20260906063700 18 44 11.3 24.1 0.00 0.00 0.00 81 1017.7
20260906063203 18 54 16.1 24.1 0.00 0.00 0.00 80 1017.7
20260906062701 18 24 14.5 22.5 0.00 0.00 0.00 80 1017.9
20260906062159 18 6 12.9 25.7 0.00 0.00 0.00 79 1017.9
20260906061655 19 0 17.7 25.7 0.00 0.00 0.00 78 1018.0
20260906061155 19 90 9.7 29.0 0.00 0.00 0.00 77 1017.9
20260906060654 19 31 16.1 29.0 0.00 0.00 0.00 76 1018.0
20260906060155 20 34 12.9 25.7 0.00 0.00 0.00 76 1018.0
20260906055652 20 10 16.1 24.1 0.00 0.00 0.00 75 1018.0
20260906055146 20 27 19.3 32.2 0.00 0.00 0.00 73 1018.0
20260906054646 20 10 14.5 32.2 0.00 0.00 0.00 72 1017.8
20260906054143 20 20 12.9 29.0 0.00 0.00 0.00 71 1017.9
20260906053642 21 0 12.9 22.5 0.00 0.00 0.00 70 1017.9
20260906053143 21 17 12.9 24.1 0.00 0.00 0.00 70 1017.9
20260906052640 21 27 11.3 20.9 0.00 0.00 0.00 70 1017.8
20260906052140 21 35 9.7 29.0 0.00 0.00 0.00 69 1017.9
20260906051638 22 358 16.1 29.0 0.00 0.00 0.00 67 1017.9
20260906051137 22 348 19.3 27.4 0.00 0.00 0.00 65 1017.9
20260906050637 23 305 14.5 30.6 0.00 0.00 0.00 63 1017.8
20260906050133 24 323 17.7 30.6 0.00 0.00 0.00 63 1017.6
20260906045632 23 223 9.7 27.4 0.00 0.00 0.00 68 1017.2
20260906044632 22 44 9.7 25.7 0.00 0.00 0.00 67 1017.1
20260906044356 22 341 14.5 25.7 0.00 0.00 0.00 68 1017.0
20260906043625 22 340 9.7 11.3 0.00 0.00 0.00 68 1016.9
20260906043344 23 62 3.2 8.0 0.00 0.00 0.00 67 1016.5
20260906042847 23 117 6.4 8.0 0.00 0.00 0.00 67 1016.4
20260906042116 23 109 6.4 9.7 0.00 0.00 0.00 67 1016.3
20260906041616 23 93 8.0 14.5 0.00 0.00 0.00 66 1016.3
20260906041110 23 140 8.0 14.5 0.00 0.00 0.00 65 1016.2
20260906040610 23 142 9.7 17.7 0.00 0.00 0.00 64 1016.1
20260906040107 23 145 12.9 17.7 0.00 0.00 0.00 64 1016.1
20260906035607 23 135 11.3 17.7 0.00 0.00 0.00 63 1016.1
20260906035110 24 131 12.9 17.7 0.00 0.00 0.00 62 1016.1
20260906034606 24 148 12.9 16.1 0.00 0.00 0.00 61 1016.1
20260906034104 24 135 9.7 14.5 0.00 0.00 0.00 60 1016.2
20260906033832 24 116 9.7 14.5 0.00 0.00 0.00 59 1016.2
20260906033103 25 120 6.4 14.5 0.00 0.00 0.00 59 1016.1
20260906032604 25 104 9.7 14.5 0.00 0.00 0.00 58 1016.1
20260906032104 25 128 8.0 16.1 0.00 0.00 0.00 58 1016.1
20260906031604 25 110 9.7 17.7 0.00 0.00 0.00 57 1016.0
20260906031102 25 117 12.9 19.3 0.00 0.00 0.00 57 1015.8
20260906030604 25 118 12.9 24.1 0.00 0.00 0.00 56 1015.6
20260906030331 25 127 14.5 24.1 0.00 0.00 0.00 56 1015.5
20260906025604 25 124 16.1 20.9 0.00 0.00 0.00 56 1015.5
20260906025103 25 142 14.5 20.9 0.00 0.00 0.00 55 1015.4
20260906024602 26 118 16.1 22.5 0.00 0.00 0.00 55 1015.4
20260906024103 26 116 16.1 29.0 0.00 0.00 0.00 54 1015.3
20260906023602 26 117 17.7 29.0 0.00 0.00 0.00 54 1015.3
20260906023102 26 144 17.7 25.7 0.00 0.00 0.00 53 1015.3
20260906022603 26 114 17.7 25.7 0.00 0.00 0.00 53 1015.3
20260906022103 26 109 19.3 24.1 0.00 0.00 0.00 52 1015.3
20260906021604 26 116 19.3 27.4 0.00 0.00 0.00 52 1015.2
20260906021104 27 113 20.9 29.0 0.00 0.00 0.00 51 1015.0
20260906020601 27 138 20.9 30.6 0.00 0.00 0.00 50 1014.9
20260906020320 27 111 22.5 30.6 0.00 0.00 0.00 50 1014.9
20260906015558 27 117 22.5 32.2 0.00 0.00 0.00 50 1014.8
20260906015059 27 116 22.5 32.2 0.00 0.00 0.00 49 1014.8
20260906014557 28 130 24.1 32.2 0.00 0.00 0.00 48 1014.8
20260906014100 28 117 24.1 32.2 0.00 0.00 0.00 48 1014.8
20260906013558 28 118 24.1 30.6 0.00 0.00 0.00 47 1014.9
20260906013057 28 114 22.5 32.2 0.00 0.00 0.00 47 1015.0
20260906012556 28 104 24.1 32.2 0.00 0.00 0.00 45 1014.9
20260906012057 29 107 19.3 32.2 0.00 0.00 0.00 44 1014.9
20260906011817 29 109 22.5 32.2 0.00 0.00 0.00 43 1014.9
20260906011058 30 109 24.1 32.2 0.00 0.00 0.00 43 1014.8
20260906010558 30 113 24.1 33.8 0.00 0.00 0.00 42 1014.8
20260906010319 30 114 24.1 33.8 0.00 0.00 0.00 42 1014.7
20260906005821 30 121 24.1 32.2 0.00 0.00 0.00 42 1014.7
20260906005058 30 83 22.5 33.8 0.00 0.00 0.00 42 1014.7
20260906004820 30 86 19.3 33.8 0.00 0.00 0.00 43 1014.8
20260906004055 30 90 19.3 30.6 0.00 0.00 0.00 43 1014.8
20260906003555 30 120 19.3 30.6 0.00 0.00 0.00 43 1014.7
20260906003057 30 114 20.9 30.6 0.00 0.00 0.00 43 1014.7
20260906002556 30 110 20.9 29.0 0.00 0.00 0.00 43 1014.6
20260906002055 30 97 20.9 29.0 0.00 0.00 0.00 43 1014.6
20260906001547 31 104 22.5 30.6 0.00 0.00 0.00 42 1014.6
20260906001047 31 118 22.5 32.2 0.00 0.00 0.00 42 1014.5
20260906000549 30 121 24.1 32.2 0.00 0.00 0.00 42 1014.5
20260906000045 30 144 20.9 35.4 0.00 0.00 0.00 42 1014.4
20260905235544 30 116 24.1 35.4 0.00 0.00 0.00 43 1014.1
20260905235042 30 121 20.9 29.0 0.00 0.00 0.00 43 1014.0
20260905234540 30 144 22.5 32.2 0.00 0.00 0.00 41 1013.9
20260905234037 30 147 22.5 32.2 0.00 0.00 0.00 39 1013.9
20260905233536 30 144 20.9 32.2 0.00 0.00 0.00 37 1013.9
20260905233036 31 121 20.9 35.4 0.00 0.00 0.00 35 1013.8
20260905232536 31 121 19.3 35.4 0.00 0.00 0.00 34 1013.8
20260905232033 31 127 24.1 33.8 0.00 0.00 0.00 34 1013.9
20260905231533 31 138 19.3 30.6 0.00 0.00 0.00 34 1013.9
20260905231259 31 145 19.3 30.6 0.00 0.00 0.00 34 1014.0
20260905230533 31 157 19.3 30.6 0.00 0.00 0.00 34 1014.1
20260905230033 31 169 19.3 32.2 0.00 0.00 0.00 34 1014.0
20260905225532 31 147 22.5 33.8 0.00 0.00 0.00 33 1013.9
20260905225031 30 121 22.5 48.3 0.00 0.00 0.00 33 1014.0
20260905224532 30 123 30.6 53.1 0.00 0.00 0.00 34 1014.0
20260905224032 29 114 38.6 53.1 0.00 0.00 0.00 36 1014.1
20260905223531 28 127 40.2 53.1 0.00 0.00 0.00 40 1014.0
20260905223031 28 131 38.6 53.1 0.00 0.00 0.00 40 1014.1
20260905222532 28 133 27.4 54.7 0.00 0.00 0.00 41 1014.4
20260905222250 30 159 30.6 54.7 0.00 0.00 0.00 39 1014.2
20260905221530 31 145 32.2 53.1 0.00 0.00 0.00 35 1014.1
20260905221032 32 131 30.6 43.5 0.00 0.00 0.00 35 1014.0
20260905220533 31 141 25.7 41.8 0.00 0.00 0.00 38 1013.9
20260905220031 31 131 19.3 41.8 0.00 0.00 0.00 42 1014.0
20260905215531 30 138 14.5 27.4 0.00 0.00 0.00 44 1014.0
20260905215032 30 135 17.7 27.4 0.00 0.00 0.00 44 1014.1
20260905214530 30 124 14.5 24.1 0.00 0.00 0.00 45 1014.2
20260905214032 30 125 14.5 19.3 0.00 0.00 0.00 44 1014.1
20260905213532 30 107 11.3 16.1 0.00 0.00 0.00 42 1014.2
20260905213033 30 106 12.9 24.1 0.00 0.00 0.00 44 1014.2
20260905212531 31 120 12.9 24.1 0.00 0.00 0.00 40 1014.4
20260905212033 32 138 12.9 27.4 0.00 0.00 0.00 34 1014.5
20260905211530 32 120 14.5 29.0 0.00 0.00 0.00 32 1014.5
20260905211028 32 120 14.5 29.0 0.00 0.00 0.00 32 1014.6
20260905210752 33 114 20.9 33.8 0.00 0.00 0.00 31 1014.6